START_TIME,STEP,MOV.,M6,t_acc.,M7,t_acc.,M19,t_acc.,H36,t_acc.
1979-07-22 12:00:26.730 ,3,0,0.,12.0,0.,12.0,0.,12.0,0.,12.0
1979-07-22 12:00:38.730 ,3,0,0.,12.0,0.,12.0,0.,12.0,0.,12.0
1979-07-22 12:00:50.730 ,2,1,0.,12.0,0.,12.0,0.,12.0,0.,12.0
1979-07-22 12:01:02.730 ,2,1,0.,12.0,0.,12.0,0.,12.0,0.,12.0
1979-07-22 12:01:14.730 ,2,0,0.,12.0,0.,12.0,0.,12.0,0.,12.0
1979-07-22 12:01:26.730 ,2,0,0.,12.0,0.,12.0,0.,12.0,0.,12.0
1979-07-22 12:01:38.730 ,1,1,0.,12.0,0.,12.0,0.,12.0,0.,12.0
1979-07-22 12:01:50.730 ,1,1,0.,12.0,0.,12.0,0.,12.0,0.,12.0
1979-07-22 12:02:02.730 ,1,0,0.,12.0,0.,12.0,0.,12.0,0.,12.0
1979-07-22 12:02:14.730 ,1,0,0.,12.0,0.,12.0,0.,12.0,0.,12.0
1979-07-22 12:02:26.730 ,0,1,0.,12.0,0.,12.0,0.,12.0,0.,12.0
1979-07-22 12:02:38.730 ,0,1,0.,12.0,0.,12.0,0.,12.0,0.,12.0
1979-07-22 12:02:50.730 ,0,0,1.,12.0,0.,12.0,0.,12.0,0.,12.0
1979-07-22 12:03:02.730 ,0,0,0.,12.0,0.,12.0,0.,12.0,0.,12.0
1979-07-22 12:03:14.730 ,0,1,0.,12.0,0.,12.0,0.,12.0,0.,12.0
1979-07-22 12:03:26.730 ,0,1,0.,12.0,0.,12.0,0.,12.0,0.,12.0
1979-07-22 12:03:38.730 ,0,0,0.,12.0,0.,12.0,0.,12.0,0.,12.0
1979-07-22 12:03:50.730 ,0,0,0.,12.0,0.,12.0,0.,12.0,0.,12.0
1979-07-22 12:04:02.730 ,1,1,0.,12.0,0.,12.0,0.,12.0,0.,12.0
1979-07-22 12:04:14.730 ,1,1,0.,12.0,0.,12.0,0.,12.0,0.,12.0
1979-07-22 12:04:26.730 ,1,0,0.,12.0,0.,12.0,0.,12.0,0.,12.0
1979-07-22 12:04:38.730 ,1,0,0.,12.0,0.,12.0,0.,12.0,0.,12.0
1979-07-22 12:04:50.730 ,2,1,0.,12.0,0.,12.0,0.,12.0,0.,12.0
1979-07-22 12:05:02.730 ,2,1,0.,12.0,0.,12.0,0.,12.0,0.,12.0
1979-07-22 12:05:14.730 ,2,0,0.,12.0,0.,12.0,0.,12.0,0.,12.0
1979-07-22 12:05:26.730 ,2,0,0.,12.0,0.,12.0,0.,12.0,0.,12.0
1979-07-22 12:05:38.730 ,3,1,0.,12.0,0.,12.0,0.,12.0,0.,12.0
1979-07-22 12:05:50.730 ,3,1,0.,12.0,0.,12.0,0.,12.0,0.,12.0
1979-07-22 12:06:02.730 ,3,0,0.,12.0,0.,12.0,0.,12.0,0.,12.0
1979-07-22 12:06:14.730 ,3,0,0.,12.0,0.,12.0,0.,12.0,0.,12.0
1979-07-22 12:06:26.730 ,4,1,0.,12.0,0.,12.0,0.,12.0,0.,12.0
1979-07-22 12:06:38.730 ,4,1,0.,12.0,0.,12.0,0.,12.0,0.,12.0
1979-07-22 12:06:50.730 ,4,0,0.,12.0,0.,12.0,0.,12.0,0.,12.0
1979-07-22 12:07:02.730 ,4,0,0.,12.0,0.,12.0,0.,12.0,0.,12.0
1979-07-22 12:06:50.730 ,4,0,0.,12.0,0.,12.0,0.,12.0,0.,12.0
1979-07-22 12:07:02.730 ,4,0,0.,12.0,0.,12.0,0.,12.0,0.,12.0
1979-07-22 12:07:14.730 ,5,1,0.,12.0,0.,12.0,0.,12.0,0.,12.0
1979-07-22 12:07:26.730 ,5,1,0.,12.0,0.,12.0,0.,12.0,0.,12.0
1979-07-22 12:07:38.730 ,5,0,0.,12.0,0.,12.0,0.,12.0,0.,12.0
1979-07-22 12:07:50.730 ,5,0,0.,12.0,0.,12.0,0.,12.0,0.,12.0
1979-07-22 12:08:02.730 ,6,1,0.,12.0,0.,12.0,0.,12.0,0.,12.0
1979-07-22 12:08:14.730 ,6,1,0.,12.0,0.,12.0,0.,12.0,0.,12.0
1979-07-22 12:08:26.730 ,6,0,0.,12.0,0.,12.0,0.,12.0,0.,12.0
1979-07-22 12:08:38.730 ,6,0,0.,12.0,0.,12.0,0.,12.0,0.,12.0
1979-07-22 12:09:38.730 ,0,0,0.,12.0,0.,12.0,0.,12.0,0.,12.0
1979-07-22 12:09:50.730 ,0,0,0.,12.0,0.,12.0,0.,12.0,0.,12.0
1979-07-22 12:10:02.730 ,0,0,0.,12.0,0.,12.0,0.,12.0,0.,12.0
1979-07-22 12:10:14.730 ,0,0,0.,12.0,0.,12.0,0.,12.0,0.,12.0
1979-07-22 12:10:26.730 ,6,1,0.,12.0,0.,12.0,0.,12.0,0.,12.0
1979-07-22 12:10:38.730 ,6,1,0.,12.0,0.,12.0,0.,12.0,0.,12.0
1979-07-22 12:10:50.730 ,6,0,0.,12.0,0.,12.0,0.,12.0,0.,12.0
1979-07-22 12:11:02.730 ,6,0,0.,12.0,0.,12.0,0.,12.0,0.,12.0
1979-07-22 12:11:14.730 ,5,1,0.,12.0,0.,12.0,0.,12.0,0.,12.0
1979-07-22 12:11:26.730 ,5,1,0.,12.0,0.,12.0,0.,12.0,0.,12.0
1979-07-22 12:11:38.730 ,5,0,0.,12.0,0.,12.0,0.,12.0,0.,12.0
1979-07-22 12:11:50.730 ,5,0,0.,12.0,0.,12.0,0.,12.0,0.,12.0
1979-07-22 12:12:02.730 ,4,1,0.,12.0,0.,12.0,0.,12.0,0.,12.0
1979-07-22 12:12:14.730 ,4,1,0.,12.0,0.,12.0,0.,12.0,0.,12.0
1979-07-22 12:12:26.730 ,4,0,0.,12.0,0.,12.0,0.,12.0,0.,12.0
1979-07-22 12:12:38.730 ,4,0,0.,12.0,0.,12.0,0.,12.0,0.,12.0
1979-07-22 12:12:50.730 ,3,1,0.,12.0,0.,12.0,0.,12.0,0.,12.0
1979-07-22 12:13:02.730 ,3,1,0.,12.0,0.,12.0,0.,12.0,0.,12.0
1979-07-22 12:13:14.730 ,3,0,1.,12.0,0.,12.0,0.,12.0,0.,12.0
1979-07-22 12:13:26.730 ,3,0,0.,12.0,0.,12.0,0.,12.0,0.,12.0
1979-07-22 12:13:38.730 ,2,1,0.,12.0,0.,12.0,0.,12.0,0.,12.0
1979-07-22 12:13:50.730 ,2,1,0.,12.0,0.,12.0,0.,12.0,0.,12.0
1979-07-22 12:14:02.730 ,2,0,0.,12.0,0.,12.0,0.,12.0,0.,12.0
1979-07-22 12:14:14.730 ,2,0,0.,12.0,0.,12.0,0.,12.0,0.,12.0
1979-07-22 12:14:26.730 ,1,1,0.,12.0,0.,12.0,0.,12.0,0.,12.0
1979-07-22 12:14:38.730 ,1,1,0.,12.0,0.,12.0,0.,12.0,0.,12.0
1979-07-22 12:14:50.730 ,1,0,0.,12.0,0.,12.0,0.,12.0,0.,12.0
1979-07-22 12:15:02.730 ,1,0,0.,12.0,0.,12.0,0.,12.0,0.,12.0
1979-07-22 12:15:14.730 ,0,1,0.,12.0,0.,12.0,0.,12.0,0.,12.0
1979-07-22 12:15:26.730 ,0,1,0.,12.0,0.,12.0,0.,12.0,0.,12.0
1979-07-22 12:15:38.730 ,0,0,0.,12.0,0.,12.0,0.,12.0,0.,12.0
1979-07-22 12:15:50.730 ,0,0,0.,12.0,0.,12.0,0.,12.0,0.,12.0
1979-07-22 12:16:02.730 ,0,1,0.,12.0,0.,12.0,0.,12.0,0.,12.0
1979-07-22 12:16:14.730 ,0,1,0.,12.0,0.,12.0,0.,12.0,0.,12.0
1979-07-22 12:16:26.730 ,0,0,0.,12.0,0.,12.0,0.,12.0,0.,12.0
1979-07-22 12:16:38.730 ,0,0,0.,12.0,0.,12.0,0.,12.0,0.,12.0
1979-07-22 12:16:50.730 ,1,1,0.,12.0,0.,12.0,0.,12.0,0.,12.0
1979-07-22 12:17:02.730 ,1,1,0.,12.0,0.,12.0,0.,12.0,0.,12.0
1979-07-22 12:17:14.730 ,1,0,0.,12.0,0.,12.0,0.,12.0,0.,12.0
1979-07-22 12:17:26.730 ,1,0,0.,12.0,0.,12.0,0.,12.0,0.,12.0
1979-07-22 12:17:38.730 ,2,1,0.,12.0,0.,12.0,0.,12.0,0.,12.0
1979-07-22 12:17:50.730 ,2,1,0.,12.0,0.,12.0,0.,12.0,0.,12.0
1979-07-22 12:18:02.730 ,2,0,0.,12.0,0.,12.0,0.,12.0,0.,12.0
1979-07-22 12:18:14.730 ,2,0,1.,12.0,0.,12.0,0.,12.0,0.,12.0
1979-07-22 12:18:26.730 ,3,1,0.,12.0,0.,12.0,0.,12.0,0.,12.0
1979-07-22 12:18:38.730 ,3,1,0.,12.0,0.,12.0,0.,12.0,0.,12.0
1979-07-22 12:18:50.730 ,3,0,0.,12.0,0.,12.0,0.,12.0,0.,12.0
1979-07-22 12:19:02.730 ,3,0,0.,12.0,0.,12.0,0.,12.0,0.,12.0
1979-07-22 12:19:14.730 ,4,1,0.,12.0,0.,12.0,0.,12.0,0.,12.0
1979-07-22 12:19:26.730 ,4,1,0.,12.0,0.,12.0,0.,12.0,0.,12.0
1979-07-22 12:19:38.730 ,4,0,0.,12.0,0.,12.0,0.,12.0,0.,12.0
1979-07-22 12:19:50.730 ,4,0,0.,12.0,0.,12.0,0.,12.0,0.,12.0
1979-07-22 12:20:02.730 ,5,1,0.,12.0,0.,12.0,0.,12.0,0.,12.0
1979-07-22 12:20:14.730 ,5,1,0.,12.0,0.,12.0,0.,12.0,0.,12.0
1979-07-22 12:20:26.730 ,5,0,0.,12.0,0.,12.0,0.,12.0,0.,12.0
1979-07-22 12:20:38.730 ,5,0,0.,12.0,0.,12.0,0.,12.0,0.,12.0
1979-07-22 12:20:50.730 ,6,1,0.,12.0,0.,12.0,0.,12.0,0.,12.0
1979-07-22 12:21:02.730 ,6,1,0.,12.0,0.,12.0,0.,12.0,0.,12.0
1979-07-22 12:21:14.730 ,6,0,0.,12.0,0.,12.0,0.,12.0,0.,12.0
1979-07-22 12:21:26.730 ,6,0,0.,12.0,0.,12.0,0.,12.0,0.,12.0
1979-07-22 12:21:38.730 ,7,1,0.,12.0,0.,12.0,0.,12.0,0.,12.0
1979-07-22 12:21:50.730 ,7,1,0.,12.0,0.,12.0,0.,12.0,0.,12.0
1979-07-22 12:22:02.730 ,7,0,0.,12.0,0.,12.0,0.,12.0,0.,12.0
1979-07-22 12:22:14.730 ,7,0,0.,12.0,0.,12.0,0.,12.0,0.,12.0
1979-07-22 12:22:26.730 ,7,1,0.,12.0,0.,12.0,0.,12.0,0.,12.0
1979-07-22 12:22:38.730 ,7,1,0.,12.0,0.,12.0,0.,12.0,0.,12.0
1979-07-22 12:22:50.730 ,7,0,0.,12.0,0.,12.0,0.,12.0,0.,12.0
1979-07-22 12:23:02.730 ,7,0,0.,12.0,0.,12.0,0.,12.0,0.,12.0
1979-07-22 12:23:14.730 ,6,1,0.,12.0,0.,12.0,0.,12.0,0.,12.0
1979-07-22 12:23:26.730 ,6,1,0.,12.0,0.,12.0,0.,12.0,0.,12.0
1979-07-22 12:23:38.730 ,6,0,0.,12.0,0.,12.0,0.,12.0,0.,12.0
1979-07-22 12:23:50.730 ,6,0,0.,12.0,0.,12.0,0.,12.0,0.,12.0
1979-07-22 12:24:02.730 ,5,1,0.,12.0,0.,12.0,0.,12.0,0.,12.0
1979-07-22 12:24:14.730 ,5,1,0.,12.0,0.,12.0,0.,12.0,0.,12.0
1979-07-22 12:24:26.730 ,5,0,0.,12.0,0.,12.0,0.,12.0,0.,12.0
1979-07-22 12:24:38.730 ,5,0,0.,12.0,0.,12.0,0.,12.0,0.,12.0
1979-07-22 12:24:50.730 ,4,1,0.,12.0,0.,12.0,0.,12.0,0.,12.0
1979-07-22 12:25:02.730 ,4,1,0.,12.0,0.,12.0,0.,12.0,0.,12.0
1979-07-22 12:25:14.730 ,4,0,0.,12.0,0.,12.0,0.,12.0,0.,12.0
1979-07-22 12:25:26.730 ,4,0,0.,12.0,0.,12.0,0.,12.0,0.,12.0
1979-07-22 12:25:38.730 ,3,1,0.,12.0,0.,12.0,0.,12.0,0.,12.0
1979-07-22 12:25:50.730 ,3,1,0.,12.0,0.,12.0,0.,12.0,0.,12.0
1979-07-22 12:26:02.730 ,3,0,0.,12.0,0.,12.0,0.,12.0,0.,12.0
1979-07-22 12:26:14.730 ,3,0,0.,12.0,0.,12.0,0.,12.0,0.,12.0
1979-07-22 12:26:26.730 ,2,1,0.,12.0,0.,12.0,0.,12.0,0.,12.0
1979-07-22 12:26:38.730 ,2,1,0.,12.0,0.,12.0,0.,12.0,0.,12.0
1979-07-22 12:26:50.730 ,2,0,0.,12.0,0.,12.0,0.,12.0,0.,12.0
1979-07-22 12:27:02.730 ,2,0,0.,12.0,0.,12.0,0.,12.0,0.,12.0
1979-07-22 12:27:14.730 ,1,1,0.,12.0,0.,12.0,0.,12.0,0.,12.0
1979-07-22 12:27:26.730 ,1,1,0.,12.0,0.,12.0,0.,12.0,0.,12.0
1979-07-22 12:27:38.730 ,1,0,0.,12.0,0.,12.0,0.,12.0,0.,12.0
1979-07-22 12:27:50.730 ,1,0,0.,12.0,0.,12.0,0.,12.0,0.,12.0
1979-07-22 12:28:02.730 ,0,1,0.,12.0,0.,12.0,0.,12.0,0.,12.0
1979-07-22 12:28:14.730 ,0,1,0.,12.0,0.,12.0,0.,12.0,0.,12.0
1979-07-22 12:28:26.730 ,0,0,0.,12.0,0.,12.0,0.,12.0,0.,12.0
1979-07-22 12:28:38.730 ,0,0,0.,12.0,0.,12.0,0.,12.0,0.,12.0
1979-07-22 12:28:50.730 ,0,1,0.,12.0,0.,12.0,0.,12.0,0.,12.0
1979-07-22 12:29:02.730 ,0,1,0.,12.0,0.,12.0,0.,12.0,0.,12.0
1979-07-22 12:29:14.730 ,0,0,0.,12.0,0.,12.0,0.,12.0,0.,12.0
1979-07-22 12:29:26.730 ,0,0,0.,12.0,0.,12.0,0.,12.0,0.,12.0
1979-07-22 12:29:38.730 ,1,1,0.,12.0,0.,12.0,0.,12.0,0.,12.0
1979-07-22 12:29:50.730 ,1,1,0.,12.0,0.,12.0,0.,12.0,0.,12.0
1979-07-22 12:30:02.730 ,1,0,0.,12.0,0.,12.0,0.,12.0,0.,12.0
1979-07-22 12:30:14.730 ,1,0,0.,12.0,0.,12.0,0.,12.0,0.,12.0
1979-07-22 12:30:26.730 ,2,1,0.,12.0,0.,12.0,0.,12.0,0.,12.0
1979-07-22 12:30:38.730 ,2,1,0.,12.0,0.,12.0,0.,12.0,0.,12.0
1979-07-22 12:30:50.730 ,2,0,0.,12.0,0.,12.0,0.,12.0,0.,12.0
1979-07-22 12:31:02.730 ,2,0,0.,12.0,0.,12.0,0.,12.0,0.,12.0
1979-07-22 12:31:14.730 ,3,1,0.,12.0,0.,12.0,0.,12.0,0.,12.0
1979-07-22 12:31:26.730 ,3,1,0.,12.0,0.,12.0,0.,12.0,0.,12.0
1979-07-22 12:31:38.730 ,3,0,0.,12.0,0.,12.0,0.,12.0,0.,12.0
1979-07-22 12:31:50.730 ,3,0,0.,12.0,0.,12.0,0.,12.0,0.,12.0
1979-07-22 12:32:02.730 ,4,1,0.,12.0,0.,12.0,0.,12.0,0.,12.0
1979-07-22 12:32:14.730 ,4,1,0.,12.0,0.,12.0,0.,12.0,0.,12.0
1979-07-22 12:32:26.730 ,4,0,0.,12.0,0.,12.0,0.,12.0,0.,12.0
1979-07-22 12:32:38.730 ,4,0,0.,12.0,0.,12.0,0.,12.0,0.,12.0
1979-07-22 12:32:50.730 ,5,1,0.,12.0,0.,12.0,0.,12.0,0.,12.0
1979-07-22 12:33:02.730 ,5,1,0.,12.0,0.,12.0,0.,12.0,0.,12.0
1979-07-22 12:33:14.730 ,5,0,0.,12.0,0.,12.0,0.,12.0,0.,12.0
1979-07-22 12:33:26.730 ,5,0,0.,12.0,0.,12.0,0.,12.0,0.,12.0
1979-07-22 12:33:38.730 ,6,1,0.,12.0,0.,12.0,0.,12.0,0.,12.0
1979-07-22 12:33:50.730 ,6,1,0.,12.0,0.,12.0,0.,12.0,0.,12.0
1979-07-22 12:34:02.730 ,6,0,0.,12.0,0.,12.0,0.,12.0,0.,12.0
1979-07-22 12:34:14.730 ,6,0,0.,12.0,0.,12.0,0.,12.0,0.,12.0
1979-07-22 12:34:26.730 ,7,1,0.,12.0,0.,12.0,0.,12.0,0.,12.0
1979-07-22 12:34:38.730 ,7,1,0.,12.0,0.,12.0,0.,12.0,0.,12.0
1979-07-22 12:34:50.730 ,7,0,0.,12.0,0.,12.0,0.,12.0,0.,12.0
1979-07-22 12:35:02.730 ,7,0,0.,12.0,0.,12.0,0.,12.0,0.,12.0
1979-07-22 12:35:14.730 ,7,1,0.,12.0,0.,12.0,0.,12.0,0.,12.0
1979-07-22 12:35:26.730 ,7,1,0.,12.0,0.,12.0,0.,12.0,0.,12.0
1979-07-22 12:35:38.730 ,7,0,0.,12.0,0.,12.0,0.,12.0,0.,12.0
1979-07-22 12:35:50.730 ,7,0,0.,12.0,0.,12.0,0.,12.0,0.,12.0
1979-07-22 12:36:02.730 ,6,1,0.,12.0,0.,12.0,0.,12.0,0.,12.0
1979-07-22 12:36:14.730 ,6,1,0.,12.0,0.,12.0,0.,12.0,0.,12.0
1979-07-22 12:36:26.730 ,6,0,0.,12.0,0.,12.0,0.,12.0,0.,12.0
1979-07-22 12:36:38.730 ,6,0,0.,12.0,0.,12.0,0.,12.0,0.,12.0
1979-07-22 12:36:50.730 ,5,1,0.,12.0,0.,12.0,0.,12.0,0.,12.0
1979-07-22 12:37:02.730 ,5,1,0.,12.0,0.,12.0,0.,12.0,0.,12.0
1979-07-22 12:37:14.730 ,5,0,0.,12.0,0.,12.0,0.,12.0,0.,12.0
1979-07-22 12:37:26.730 ,5,0,0.,12.0,0.,12.0,0.,12.0,0.,12.0
1979-07-22 12:37:38.730 ,4,1,0.,12.0,0.,12.0,0.,12.0,0.,12.0
1979-07-22 12:37:50.730 ,4,1,0.,12.0,0.,12.0,0.,12.0,0.,12.0
1979-07-22 12:38:02.730 ,4,0,0.,12.0,0.,12.0,0.,12.0,0.,12.0
1979-07-22 12:38:14.730 ,4,0,0.,12.0,0.,12.0,0.,12.0,0.,12.0
1979-07-22 12:38:26.730 ,3,1,0.,12.0,0.,12.0,0.,12.0,0.,12.0
1979-07-22 12:38:38.730 ,3,1,0.,12.0,0.,12.0,0.,12.0,0.,12.0
1979-07-22 12:38:50.730 ,3,0,0.,12.0,0.,12.0,0.,12.0,0.,12.0
1979-07-22 12:39:02.730 ,3,0,0.,12.0,0.,12.0,0.,12.0,0.,12.0
1979-07-22 12:39:14.730 ,2,1,0.,12.0,0.,12.0,0.,12.0,0.,12.0
1979-07-22 12:39:26.730 ,2,1,0.,12.0,0.,12.0,0.,12.0,0.,12.0
1979-07-22 12:39:38.730 ,2,0,0.,12.0,0.,12.0,0.,12.0,0.,12.0
1979-07-22 12:39:50.730 ,2,0,0.,12.0,0.,12.0,0.,12.0,0.,12.0
1979-07-22 12:40:02.730 ,1,1,0.,12.0,0.,12.0,0.,12.0,0.,12.0
1979-07-22 12:40:14.730 ,1,1,0.,12.0,0.,12.0,0.,12.0,0.,12.0
